Regional Weather Roundup
Issued by NWS Wakefield, VA

Home | Current Version | Previous Version | Text Only | Print | Product List | Glossary On
Versions: 1 2 3 4 5 6 7 8 9 10 11 12 13 14 15 16 17 18 19 20 21 22 23 24 25 26 27 28
000
ASUS41 KAKQ 310415
RWRAKQ

REGIONAL WEATHER ROUNDUP
NATIONAL WEATHER SERVICE WAKEFIELD VA
1200 AM EDT SUN JUL 31 2016

Note: "fair" indicates few or no clouds below 12,000 feet with no
significant weather and/or obstructions to visibility. * = Denotes
station may not report precipitation (e.g., rain,snow,etc.),
thunder or fog.

VAZ042-051-052>054-056-310500-
NORTHERN VIRGINIA

CITY           SKY/WX    TMP DP  RH WIND       PRES   REMARKS
WASH NATIONAL  CLOUDY    76  73  91 W3        29.98R
DULLES         MOCLDY    71  70  96 CALM      29.99R
FORT BELVOIR   MOCLDY    74  73  95 CALM      29.97R
QUANTICO       FAIR      74  71  91 W3        29.98
FREDERICKSBRG* FAIR      73  73 100 CALM      29.97R
STAFFORD*      FAIR      71  70  96 CALM      30.02S FOG
WARRENTON      MOCLDY    73  68  86 CALM      29.99S
CULPEPER*      MOCLDY    72  72 100 CALM      30.00S FOG
MANASSAS*      CLOUDY    73  72  94 CALM      29.98S
LEESBURG*      MOCLDY    72  72 100 S5        30.00S
WINCHESTER     MOCLDY    72  72 100 CALM      30.00S FOG
FRONT ROYAL*   MOCLDY    72  72 100 S3        29.99F
LURAY*         NOT AVBL
$$

VAZ048-049-060>072-079>083-310500-
CENTRAL AND SOUTH CENTRAL VIRGINIA

CITY           SKY/WX    TMP DP  RH WIND       PRES   REMARKS
RICHMOND       MOCLDY    74  72  93 SE3       29.98S
CHESTERFIELD*  FAIR      73  61  64 CALM      29.99F
PETERSBURG*    FAIR     N/A N/A N/A S3        30.00S
HANOVER        FAIR      74  72  93 CALM      29.99S
TAPPAHANNOCK*  FAIR      75  75 100 SE3       29.98F
QUINTON*       FAIR      73  73  99 E5        29.98S
CHARLOTTSVILLE FOG       72  70  93 CALM      30.00S VSB 1/2
GORDONSVILLE*  FAIR      72  72 100 S5        30.00R
ORANGE*          N/A     72  72 100 CALM      30.02R
LOUISA*        FAIR      75  73  94 CALM      29.99S
BUMPASS*       FAIR      71  71 100 CALM      29.99S
FARMVILLE*     MOCLDY   N/A N/A N/A CALM      30.00R HAZE
CREWE*         NOT AVBL
FORT PICKETT*  FAIR      72  72  98 CALM      30.01R
CHASE CITY*    FAIR      74  73  95 CALM      30.01S
CLARKSVILLE*   MOCLDY    75  75 100 CALM      29.99S
SOUTH HILL*    FAIR      73  73 100 CALM      30.05S
LAWRENCEVILLE* FAIR      73  73 100 CALM      29.99F
EMPORIA*         N/A     73  73 100 CALM      30.00F
$$

VAZ088>098-310500-
SOUTHEAST VIRGINIA

CITY           SKY/WX    TMP DP  RH WIND       PRES   REMARKS
NORFOLK        MOCLDY    76  73  91 S3        29.98R
VIRGINIA BEACH MOCLDY    81  73  76 CALM      29.98R
NORFOLK NAVAL  CLOUDY    76  73  91 CALM      29.99S
WEST POINT*    FAIR      74  72  95 E5        30.00F
SALUDA*        FAIR      74  74 100 CALM      29.99S
NEWPORT NEWS   FAIR      74  73  97 N3        29.99R
LANGLEY AFB    MOCLDY    76  75  97 W3        29.98R
FORT EUSTIS    MOCLDY    75  73  94 N5        29.99R
WILLIAMSBURG*  FAIR      75  75 100 CALM      30.01R
HR EXEC AP*    FAIR      75  72  88 CALM      30.01R
FRANKLIN*      FAIR      74  73  96 SW3       29.99S
US460-WAKEFLD  CLOUDY    74  72  93 NW3       30.01R
$$

VAZ020-022-025-037-045-310500-
WEST CENTRAL AND SOUTHWEST VIRGINIA

CITY           SKY/WX    TMP DP  RH WIND       PRES   REMARKS
STAUNTON*      FAIR      70  69  98 NW3       30.06R
WAYNESBORO*    FAIR      70  68  96 CALM      30.05R
HOT SPRINGS VA NOT AVBL
LYNCHBURG      MOCLDY    73  71  93 E3        30.04S
DANVILLE       FAIR      76  71  85 CALM      30.01R
SOUTH BOSTON*  MOCLDY   N/A N/A N/A NE3       30.00S
MARTINSVILLE   CLOUDY    73  71  93 CALM      30.05R
ROANOKE        FAIR      76  71  85 CALM      30.05R
BLACKSBURG     FAIR      70  69  97 CALM      30.13R
DUBLIN*        FAIR      73  69  89 CALM      30.11R
MARION*        FAIR      69  67  95 CALM      30.16R
HILLSVILLE*    FAIR      69  67  93 CALM      30.12S
RICHLANDS*     FAIR      71  69  94 SE5       30.13R
WISE*          FAIR      70  68  94 CALM      30.13S
ABINGDON*      FAIR      72  69  90 CALM      30.10R
$$

MDZ021>025-VAZ099-100-310500-
SOUTHERN MARYLAND AND THE DELMARVA PENINSULA

CITY           SKY/WX    TMP DP  RH WIND       PRES   REMARKS
PATUXENT RIVER NOT AVBL
BAY BRIDGE APT CLOUDY    73  73 100 E3        29.97S
LEONARDTOWN    CLOUDY    75  73  94 MISG        N/A
DOVER          LGT RAIN  76  76 100 E9        29.96F
GEORGETOWN     CLOUDY    76  73  91 SE5       30.00F
EASTON         CLOUDY    75  75 100 SE7       30.00F
CAMBRIDGE      CLOUDY    73  72  94 SE3       29.98S
SALISBURY      NOT AVBL
OCEAN CITY     CLOUDY    78  74  87 CALM      29.99S
WALLOPS ISLAND FAIR      78  75  90 S3        29.99F
ACCOMACK*      CLOUDY    75  73  94 CALM      29.99S
$$

NCZ012>017-030>032-310500-
NORTH CENTRAL AND EASTERN NORTH CAROLINA

CITY           SKY/WX    TMP DP  RH WIND       PRES   REMARKS
ROANOKE RAPIDS LGT RAIN  73  73 100 S3        29.98F
RALEIGH        MOCLDY    78  74  87 SE6       30.01S
ELIZABETH CITY CLOUDY    76  75  97 SW5       29.98S
AHOSKIE*       CLOUDY    73  73  99 CALM      29.99S
EDENTON*       CLOUDY    80  80 100 SW6       29.99F
CURRITUCK*     CLOUDY    77  77 100 W3        29.99S
KILL DEVIL HLS CLOUDY    83  83 100 SW7       29.97F HX  98
MANTEO         CLOUDY    83  83  99 SW16      29.98F HX  99
CAPE HATTERAS  CLOUDY    81  80  97 SW9       30.01S
TARBORO*       FAIR      75  73  93 CALM      30.00S
GOLDSBORO      CLOUDY    78  78 100 E3        29.98F
WASHINGTON     LGT RAIN  76  75  97 CALM      30.00F
GREENVILLE     CLOUDY    77  77 100 CALM      30.01F
NEW BERN       MOCLDY    81  77  88 S3        30.02R
WILMINGTON     CLOUDY    82  76  81 SW8       30.02S
$$

VAZ048-310500-
ELSEWHERE

CITY           SKY/WX    TMP DP  RH WIND       PRES   REMARKS
HARRISBURG PA  CLOUDY    73  71  93 SE7       29.98F
BALTIMORE      CLOUDY    72  71  97 CALM      29.98R
ANNAPOLIS      CLOUDY    76  73  91 E3        29.97R
ANDREWS AFB    FAIR      73  71  95 NE3       29.98R
PHILADELPHIA   LGT RAIN  76  73  91 E7        30.01S
HENDERSON NC   PTCLDY    72  71  96 S5        30.01R
GREENSBORO     CLOUDY    81  71  71 SW5       30.01R
ROCKY MOUNT    CLOUDY    75  75 100 S5        30.00F
$$

VAZ100-310500-
MARINE

STATION/POSITION TIME  TEMP    WIND        PRES    WAVE   SWELL
                       AIR SEA DIR/SP/G            HT/PER HT/PER
                 (UTC) (F)     (DEG/KT/KT) (MB)    (FT/S) (FT/S)
BRANDYWINE LGT   0300   76     150/  6/  7   N/A
CAPE MAY NJ      0300      75                N/A
LEWES DE         0300      75                N/A
OCEAN-CITY-INLET 0300      76                N/A
WACHAPREAGUE VA  0300      84                N/A
THOMAS POINT MD  0400   77 82  120/  8/  9 1016.4R
GOOSES REEF MD   0400   81 84  140/  8/ 12 1015.7F   1/ 3
COVE POINT MD    0312                      1015.4F
SOLOMONS ISLAND  0300      85                N/A
BISHOPS HEAD MD  0312                      1015.4R
PINEY POINT MD   0300          240/  4/  6   N/A
POTOMAC MD       0400   80 84  230/  6/  8 1013.9F   1
CAMBRIDGE MD     0300      86                N/A
LEWISETTA VA     0300      86                N/A
RAPPAHANNOCK LGT 0312                      1015.8R
STINGRAY PT      0400   80 86  230/  8/ 10 1016.0R   0
YORK RVR RNG VA  0312                      1014.7R
YORKTOWN VA      0300      84                N/A
JAMESTOWN VA     0400   77 88   20/  4/  8   N/A
DOMINION TERM VA 0306                      1015.1R
KIPTOPEKE VA     0300      77                N/A
CHES BAY BRIDGE  0300      71                N/A
CAPE HENRY VA    0324   75      CALM  /  1   N/A
WILLOUBY STN VA  0324   77     100/  1/  4   N/A
CAPE HENRY BUOY  0312      77                N/A     2/ 6
1ST LANDING BUOY 0400   76 75  160/  4/  6 1015.2R   1/ 4
CAPE CHARLES BUO 0326      79                N/A     2/ 4
OFFSHORE WE BUOY 0321      82                N/A     2/ 4
64NM E OF VA BCH 0350   82 82  160/ 10/ 12 1015.4F   2/ 4   2/ 5
DUCK PIER NC     0300      73                N/A
44100 DUCK FRF   0305      83                N/A     2/ 6
44056 DUCK FRF   0311      79                N/A     2/13
OREGON INLET NC  0300      80                N/A
HATTERAS NC      0300      83                N/A
DIAMOND SHLS NC  0350   85 84  210/ 19/ 21 1016.2R   4/ 5   2/13
CAPE LOOKOUT NC  0400   84     220/ 10/ 13 1016.4R
$$




USA.gov is the U.S. government's official web portal to all federal, state and local government web resources and services.